Regional Weather Roundup
Issued by NWS Columbia, SC

Home | Current Version | Previous Version | Text Only | Print | Product List | Glossary On
Versions: 1 2 3 4 5 6 7 8 9 10 11 12 13 14 15 16 17 18 19 20 21 22 23 24 25 26 27
000
ASUS42 KCAE 211710
RWRCAE
REGIONAL WEATHER ROUNDUP
NATIONAL WEATHER SERVICE COLUMBIA SC
100 PM EDT MON AUG 21 2017

NOTE: "FAIR" INDICATES FEW OR NO CLOUDS BELOW 12,000 FEET WITH NO
SIGNIFICANT WEATHER AND/OR OBSTRUCTIONS TO VISIBILITY.

NOT ALL STATIONS ARE QUALITY CONTROLLED BY THE NATIONAL
WEATHER SERVICE. USE DATA WITH CAUTION...ESPECIALLY
DEWPOINT OBSERVATIONS.

SCZ001>056-GAZ040-063>065-077-211800-
...UPSTATE SOUTH CAROLINA...

CITY           SKY/WX    TMP DP  RH WIND       PRES   REMARKS
ANDERSON       CLOUDY    92  69  47 VRB5      30.20F HX  97
LIBERTY        SUNNY     90  73  57 CALM      30.21F HX  97
SPARTANBURG    SUNNY     88  68  51 CALM      30.21F
CLEMSON        SUNNY     91  72  53 VRB6      30.22F HX  98
GREENVILLE     MOSUNNY   90  70  51 VRB3      30.23F HX  95
GREENWOOD      SUNNY     89  71  55 VRB5      30.21F HX  95
GREER          MOSUNNY   89  68  49 NE6       30.21F
ROCK HILL      PTSUNNY   89  73  59 CALM      30.22F HX  97
CHESTER        MOSUNNY   88  68  51 E8        30.22F
LAURENS        MOSUNNY   90  70  51 SE3       30.20F HX  95


...CENTRAL SOUTH CAROLINA...

CITY           SKY/WX    TMP DP  RH WIND       PRES   REMARKS
COLUMBIA APT   MOSUNNY   93  72  50 SE7       30.18F HX 101
COLUMBIA OWENS MOSUNNY   91  70  49 CALM      30.19F HX  96
MCENTIRE ANGB  MOSUNNY   89  72  56 NE5       30.19F HX  97
ORANGEBURG     PTSUNNY   89  73  59 E9        30.18F HX  97
SUMTER SHAW    PTSUNNY   88  72  59 N7        30.16F HX  95
NEWBERRY       MOSUNNY   91  70  49 E5        30.22F HX  97
AIKEN          FAIR      90  70  51 SE8       30.23S HX  95
BARNWELL       FAIR      90  77  66 NE5       30.18F HX 102
MANNING        FAIR      90  77  66 NE7       30.17F HX 102
CAMDEN         FAIR      91  70  49 E5G13     30.19F HX  97
LANCASTER      MOSUNNY   91  72  52 NE3       30.20F HX  98
WINNSBORO      MOSUNNY   90  68  48 E8        30.20F


...EASTERN AND COASTAL SOUTH CAROLINA...

CITY           SKY/WX    TMP DP  RH WIND       PRES   REMARKS
MYRTLE BEACH   PTSUNNY   84  75  74 E13       30.20F
N MYRTLE BCH   CLOUDY    86  76  71 E12       30.18F HX  96
CONWAY         CLOUDY    77  73  88 SE12G17   30.20R
MARION         PTSUNNY   88  73  62 E7        30.18F HX  96
HARTSVILLE     FAIR      90  68  48 E3        30.19F
FLORENCE       PTSUNNY   91  74  57 E9        30.18F HX 100
CHARLESTON APT CLOUDY    89  76  65 SE9       30.16F HX 100
MOUNT PLEASANT FAIR      88  79  74 E6        30.16F HX 102
WALTERBORO     MOSUNNY   90  75  62 E8        30.18F HX 100
BEAUFORT       HVY RAIN  81  76  84 NE8G28    30.17F


...EASTERN GEORGIA...

CITY           SKY/WX    TMP DP  RH WIND       PRES   REMARKS
AUGUSTA BUSH F MOSUNNY   93  76  57 CALM      30.17F HX 105
AUGUSTA DANIEL CLOUDY    90  70  51 CALM      30.20S HX  95
THOMSON        MOSUNNY   88  72  59 SE7       30.25R HX  95
WASHINGTON     FAIR     N/A N/A N/A E3        30.20S
CLAXTON        PTSUNNY   90  77  66 NE9       30.17F HX 102
SYLVANIA       MOSUNNY   90  79  68 E7        30.18F HX 106
STATESBORO     CLOUDY    92  68  45 E6        30.17F HX  95
SAVANNAH       TSTM      77  73  87 N16G30    30.18S FOG


...SOUTHERN NORTH CAROLINA...

CITY           SKY/WX    TMP DP  RH WIND       PRES   REMARKS
CHARLOTTE      PTSUNNY   90  73  57 VRB3      30.22F HX  98
MONROE         MOSUNNY   91  70  49 NE3       30.21F HX  96
WADESBORO      MOSUNNY   91  69  48 CALM      30.20F HX  96
ROCKINGHAM     MOSUNNY   89  72  57 E3        30.21F HX  95
RUTHERFORDTON  MOSUNNY   87  72  59 S5        30.24F
ASHEVILLE      SUNNY     87  66  49 N5        30.29F

$$




USA.gov is the U.S. government's official web portal to all federal, state and local government web resources and services.